Regional Weather Roundup
Issued by NWS

Home | Current Version | Previous Version | Graphics & Text | Print | Product List | Glossary On
Versions: 1 2 3 4 5 6 7 8 9 10 11 12 13 14 15 16 17 18 19 20 21 22 23 24 25 26 27 28 29 30 31 32 33 34 35 36 37 38 39 40 41 42 43 44 45 46 47 48 49 50
000
ASUS43 KLSX 230407
RWRMO

WEATHER SUMMARY FOR MISSOURI
NATIONAL WEATHER SERVICE SPRINGFIELD MO
1100 PM CDT FRI AUG 22 2014

NOTE: "FAIR" INDICATES FEW OR NO CLOUDS BELOW 12,000 FEET WITH NO
       SIGNIFICANT WEATHER AND/OR OBSTRUCTIONS TO VISIBILITY.
       CURRENT SKY AND/OR WEATHER CONDITIONS ARE NOT AVAILABLE FOR
       CHILLICOTHE AND FARMINGTON.

MOZ001>031-035>038-043-044-053-054-230500-
...NORTHERN AND WESTERN MISSOURI...

CITY           SKY/WX    TMP DP  RH WIND       PRES   REMARKS
KANSAS CTY INT CLOUDY    80  71  74 NE3       29.93S
KANSAS C DTWN  CLOUDY    83  68  60 NE5       29.91S
LEE`S SUMMIT   PTCLDY    78  71  79 E5        29.93F
ST JOSEPH      CLOUDY    80  76  87 E6        29.92R
CHILLICOTHE      N/A     80  77  90 CALM      29.94R
KIRKSVILLE     PTCLDY    80  77  90 SE5       29.96F

$$
MOZ066>068-077>081-088>096-101>105-230500-
...SOUTHWEST MISSOURI...

CITY           SKY/WX    TMP DP  RH WIND       PRES   REMARKS
SPRINGFIELD    PTCLDY    82  69  64 SW7       29.97R
JOPLIN         CLEAR     84  71  65 S10       29.96R

$$
MOZ032>034-039>042-045>050-055>058-069>072-230500-
...CENTRAL MISSOURI...

CITY           SKY/WX    TMP DP  RH WIND       PRES   REMARKS
COLUMBIA       PTCLDY    81  77  88 E7        29.93S
JEFFERSON CITY PTCLDY    80  77  90 CALM      29.92R
ROLLA          PTCLDY    82  69  64 S9        29.95R
SEDALIA        PTCLDY    81  76  84 CALM      29.94R
WHITEMAN AFB   PTCLDY    79  71  78 CALM      29.93R
OSAGE BEACH    PTCLDY    79  72  78 CALM      29.94R

$$
MOZ051-052-059>065-230500-
...EAST CENTRAL MISSOURI...

CITY           SKY/WX    TMP DP  RH WIND       PRES   REMARKS
ST LOUIS INTL  MOCLDY    84  78  82 E7        29.95S HX  95
SPIRIT OF STL  MOCLDY    79  77  94 CALM      29.93R
ST CHARLES     PTCLDY    80  77  90 E5        29.93S

$$
MOZ072>076-082>087-097>100-106>115-230500-
...SOUTH CENTRAL AND SOUTHEAST MISSOURI...

CITY           SKY/WX    TMP DP  RH WIND       PRES   REMARKS
CAPE GIRARDEAU MOCLDY    81  77  88 CALM      29.97R
FARMINGTON     PTCLDY    81  72  74 CALM      30.00S
POPLAR BLUFF   CLEAR     81  73  76 S6        29.96R
WEST PLAINS    CLEAR     81  70  69 SW5       30.01R

$$



USA.gov is the U.S. government's official web portal to all federal, state and local government web resources and services.